Tri-Cities, TN

7:54 AM EDT on April 30, 2017 (GMT -0400)
Tri-Cities Regional Tennessee / Virginia

Weather History for KTRI - May, 2013

Change the Weather History Date:

Friday, May 3, 2013

  Actual Average Record
Temperature  
Mean Temperature 59 °F 60 °F  
Max Temperature 68 °F 73 °F 89 °F (1942)
Min Temperature 49 °F 47 °F 32 °F (2005)
Degree Days  
Heating Degree Days 6 6  
Month to date heating degree days 10 18  
Since 1 July heating degree days 4211 4272  
Cooling Degree Days 0 1  
Month to date cooling degree days 0 3  
Year to date cooling degree days 6 14  
Growing Degree Days 9 (Base 50)    
Moisture  
Dew Point 46 °F    
Average Humidity 60    
Maximum Humidity 86    
Minimum Humidity 34    
Precipitation  
Precipitation 0.00 in 0.12 in 1.08 in (2010)
Month to date precipitation 0.00 0.35  
Year to date precipitation 20.60 13.94  
Snow  
Snow 0.00 in 0.00 in - ()
Month to date snowfall 0.0 0.0  
Since 1 July snowfall 9.2 13.3  
Snow Depth 0.00 in    
Sea Level Pressure  
Sea Level Pressure 30.08 in    
Wind  
Wind Speed 9 mph (East)    
Max Wind Speed 18 mph    
Max Gust Speed 29 mph    
Visibility 10 miles    
Events      
T = Trace of Precipitation, MM = Missing Value Source: NWS Daily Summary

Daily Weather History Graph

Daily Weather History Graph

Search for Another Location

Airport or City:

Trip Planner

Search our weather history database for the weather conditions in past years. The results will help you decide how hot, cold, wet, or windy it might be!

Date:

Astronomy

May. 03, 2013 Rise Set
Actual Time 6:33 AM EDT 8:19 PM EDT
Civil Twilight 6:06 AM EDT 8:47 PM EDT
Nautical Twilight 5:32 AM EDT 9:21 PM EDT
Astronomical Twilight 4:56 AM EDT 9:57 PM EDT
Moon 2:46 AM EDT (5/3) 2:22 PM EDT (5/3)
Length of Visible Light 14h 41m
Length of Day
13h 45m
Last Quarter, 37% of the Moon is Illuminated
May 3
Last Quarter
May 9
New
May 18
First Quarter
May 25
Full
May 31
Last Quarter

Hourly Weather History & Observations

Time (EDT) Temp. Dew Point Humidity Pressure Visibility Wind Dir Wind Speed Gust Speed Precip Events Conditions
12:53 AM 60.1 °F 48.9 °F 67% 30.15 in 10.0 mi ESE 12.7 mph 19.6 mph N/A   Scattered Clouds
1:53 AM 57.9 °F 48.9 °F 72% 30.13 in 10.0 mi East 5.8 mph - N/A   Scattered Clouds
2:53 AM 55.9 °F 48.0 °F 75% 30.11 in 10.0 mi East 3.5 mph - N/A   Clear
3:53 AM 55.0 °F 48.0 °F 77% 30.10 in 10.0 mi Calm Calm - N/A   Clear
4:53 AM 50.0 °F 46.9 °F 89% 30.11 in 10.0 mi Calm Calm - N/A   Clear
5:53 AM 50.0 °F 46.9 °F 89% 30.11 in 10.0 mi Calm Calm - N/A   Scattered Clouds
6:53 AM 50.0 °F 46.9 °F 89% 30.12 in 10.0 mi North 3.5 mph - N/A   Mostly Cloudy
7:53 AM 55.9 °F 48.9 °F 77% 30.12 in 10.0 mi Calm Calm - N/A   Partly Cloudy
8:53 AM 59.0 °F 50.0 °F 72% 30.12 in 10.0 mi East 4.6 mph - N/A   Scattered Clouds
9:53 AM 64.0 °F 55.0 °F 73% 30.11 in 10.0 mi ENE 6.9 mph - N/A   Scattered Clouds
10:53 AM 64.9 °F 53.1 °F 65% 30.11 in 10.0 mi ESE 13.8 mph - N/A   Scattered Clouds
11:53 AM 66.9 °F 51.1 °F 57% 30.10 in 10.0 mi ENE 16.1 mph - N/A   Mostly Cloudy
12:53 PM 66.9 °F 37.9 °F 34% 30.08 in 10.0 mi ESE 11.5 mph 19.6 mph N/A   Mostly Cloudy
1:53 PM 66.0 °F 37.9 °F 36% 30.06 in 10.0 mi ESE 11.5 mph 19.6 mph N/A   Mostly Cloudy
2:53 PM 66.0 °F 42.1 °F 42% 30.06 in 10.0 mi SE 15.0 mph 20.7 mph N/A   Mostly Cloudy
3:53 PM 68.0 °F 46.0 °F 45% 30.05 in 10.0 mi East 12.7 mph 19.6 mph N/A   Overcast
4:53 PM 66.9 °F 46.0 °F 47% 30.05 in 10.0 mi ESE 11.5 mph - N/A   Overcast
5:53 PM 64.9 °F 42.1 °F 43% 30.05 in 10.0 mi East 13.8 mph 20.7 mph N/A   Overcast
6:53 PM 63.0 °F 37.9 °F 40% 30.06 in 10.0 mi East 12.7 mph 21.9 mph N/A   Overcast
7:53 PM 62.1 °F 39.9 °F 44% 30.05 in 10.0 mi ESE 11.5 mph 18.4 mph N/A   Overcast
8:53 PM 61.0 °F 42.1 °F 50% 30.05 in 10.0 mi ESE 12.7 mph 19.6 mph N/A   Overcast
9:53 PM 61.0 °F 44.1 °F 54% 30.05 in 10.0 mi East 10.4 mph - N/A   Overcast
10:53 PM 61.0 °F 44.1 °F 54% 30.04 in 10.0 mi East 15.0 mph 21.9 mph N/A   Mostly Cloudy
11:53 PM 60.1 °F 44.1 °F 55% 30.02 in 10.0 mi ESE 10.4 mph 18.4 mph N/A   Overcast